Regional Weather Roundup
Issued by NWS

Home | Current Version | Previous Version | Graphics & Text | Print | Product List | Glossary On
Versions: 1 2 3 4 5 6 7 8 9 10 11 12 13 14 15 16 17 18 19 20 21 22 23 24 25 26 27 28 29 30 31 32 33 34 35 36 37 38 39 40 41 42 43 44 45 46 47 48 49 50
595
ASUS45 KSLC 221510
RWRUT

UTAH REGIONAL WEATHER ROUNDUP
NATIONAL WEATHER SERVICE SALT LAKE CITY UT
800 AM MST WED FEB 22 2017

UTZ001>011-023>025-221600-

NORTHERN UTAH

CITY           SKY/WX    TMP DP  RH WIND       PRES   REMARKS
BRIGHAM CITY     N/A     37  32  82 CALM      30.01S
DUGWAY         CLOUDY    33  33  99 S2        29.99  FOG
HILL AFB       MOCLDY    33  31  93 SE5       29.99F WCI  28
LOGAN          CLOUDY    35  32  88 CALM      29.99S
OGDEN          CLOUDY    34  33  96 CALM      29.98F
SALT LAKE CITY CLOUDY    36  34  92 SE8       29.99F WCI  30
TOOELE VALLEY  MOCLDY    34  32  93 S8        29.99F WCI  27
WENDOVER       CLOUDY    36  27  69 W5        29.99F WCI  32
HEBER CITY     LGT SNOW  30  30 100 CALM      29.96F
WEST JORDAN    CLOUDY    37  37 100 S7        30.00S WCI  31

$$

UTZ011>015-024>027-221600-

CENTRAL/NORTHEAST UTAH

CITY           SKY/WX    TMP DP  RH WIND       PRES   REMARKS
PROVO AIRPORT  LGT SNOW N/A N/A N/A CALM      30.02F
MOAB/CANYONLAN SUNNY     44  35  70 VRB3      29.94S
DELTA          CLOUDY    34  32  93 N6        29.99S WCI  29
PRICE          MOCLDY    37  31  78 E7        29.93S WCI  32
RICHFIELD      CLEAR     45  28  53 SW10      29.96F
ROOSEVELT      FLURRIES  37  32  81 W10       29.98R WCI  30
VERNAL         MIX PCPN  35  31  85 NE9       29.96R WCI  28

$$

UTZ013>016-019>022-027-221600-

SOUTHERN UTAH

CITY           SKY/WX    TMP DP  RH WIND       PRES   REMARKS
BRYCE CANYON   PTCLDY    33  25  72 VRB6      30.02F WCI  28
CEDAR CITY     CLEAR     38  34  85 W8        29.96F WCI  32
MILFORD        CLOUDY    35  32  88 N9        29.97S WCI  28
ST GEORGE      CLOUDY    46  42  86 SE5       29.97S
HANKSVILLE     CLEAR     46  32  57 W3        29.96S
KANAB          CLEAR     45  39  81 SW3       30.05S
BLANDING       PTSUNNY   40  37  87 CALM      30.11F

$$

REGIONAL REPORTS     COLORADO/ARIZONA

CITY           SKY/WX    TMP DP  RH WIND       PRES   REMARKS
CRAIG, CO      LGT SNOW  31  27  85 SW6       29.99R FOG     WCI  25
GRAND JUNCTION PTSUNNY   43  36  76 S5        29.95S
RIFLE, CO      CLOUDY    46  31  55 W7        29.95R
MONTROSE, CO   CLOUDY    47  27  45 VRB5      30.01S
CORTEZ, CO     CLOUDY    44  37  76 SW6       30.08F
COLORADO CITY    N/A     34  34 100 CALM      30.04S
PAGE, AZ       MOCLDY    46  37  71 W3        29.98S
GRAND CANYON   CLOUDY    40  39  97 S7        30.11S
KINGMAN, AZ    MOCLDY    43  37  79 CALM      30.03S
FLAGSTAFF, AZ  PTSUNNY   42  39  89 SW6       30.16S

$$

REGIONAL REPORTS    NEVADA/IDAHO/WYOMING

CITY           SKY/WX    TMP DP  RH WIND       PRES   REMARKS
LAS VEGAS, NV  PTCLDY    55  32  41 S17G24    29.93R
ELY, NY        MOCLDY    16  14  92 SE5       29.97S WCI   9
ELKO, NV       CLOUDY    30  26  85 N5        29.96F WCI  25
POCATELLO, ID  PTCLDY    31  25  78 SW5       29.99S WCI  26
BURLEY, ID     PTCLDY    33  25  72 SW6       29.97S WCI  28
FORT BRIDGER,  LGT SNOW  25  25 100 SW10      29.98F WCI  15
EVANSTON, WY   CLOUDY    23  20  88 S7        29.94F FOG     WCI  15
ROCK SPRINGS,  FLURRIES  26  22  84 SW10      29.97R WCI  16

$$




USA.gov is the U.S. government's official web portal to all federal, state and local government web resources and services.